Regional Weather Roundup
Issued by NWS

Home | Current Version | Previous Version | Graphics & Text | Print | Product List | Glossary On
Versions: 1 2 3 4 5 6 7 8 9 10 11 12 13 14 15 16 17 18 19 20 21 22 23 24 25 26 27 28 29 30 31 32 33 34 35 36 37 38 39 40 41 42 43 44 45 46 47 48 49 50
000
ASUS43 KLMK 281110
RWRKY
KENTUCKY REGIONAL WEATHER ROUNDUP
NATIONAL WEATHER SERVICE LOUISVILLE KY
700 AM EDT FRI JUL 28 2017

NOTE "FAIR" INDICATES FEW OR NO CLOUDS BELOW 12,000 FEET
WITH NO SIGNIFICANT WEATHER AND/OR OBSTRUCTIONS TO VISIBILITY.

KYZ001>023-026-027-061>063-070>075-281200-
WESTERN AND SOUTH CENTRAL KENTUCKY

CITY           SKY/WX    TMP DP  RH WIND       PRES   REMARKS
PADUCAH        CLOUDY    77  75  93 W5        29.82R
HENDERSON      MOCLDY    74  74 100 CALM      29.83R
OWENSBORO      CLOUDY    74  73  97 W3        29.82S FOG
HOPKINSVILLE   CLOUDY    75  75 100 SW7       29.83S
BOWLING GREEN  CLOUDY    76  74  93 SW7       29.84S
GLASGOW        CLOUDY    74  74 100 SW3       29.85S
$$

KYZ024-025-028>034-038-045-046-053-281200-
NORTH CENTRAL KENTUCKY

CITY           SKY/WX    TMP DP  RH WIND       PRES   REMARKS
LOUISVILLE/SDF CLOUDY    75  73  93 SE6       29.82S
LOUISVILLE/LOU CLOUDY    75  74  96 S5        29.83S
FORT KNOX      CLOUDY    73  73 100 SW3       29.82S
$$

KYZ035>037-039>044-047>052-055>060-089>105-281200-
NORTHEAST KENTUCKY

CITY           SKY/WX    TMP DP  RH WIND       PRES   REMARKS
LEXINGTON      CLOUDY    73  70  90 S5        29.86S
COVINGTON      LGT RAIN  73  73 100 CALM      29.84S FOG
FRANKFORT      CLOUDY    73  69  87 S5        29.84S
$$

KYZ054-064>069-076>088-106>120-281200-
SOUTHEAST KENTUCKY

CITY           SKY/WX    TMP DP  RH WIND       PRES   REMARKS
JACKSON        FOG       70  69  97 CALM      29.89S VSB 3/4
LONDON         MOCLDY    71  69  93 CALM      29.89R FOG
SOMERSET       CLOUDY    70  70 100 CALM      29.89S FOG
MIDDLESBORO    CLOUDY    71  71 100 CALM      29.91S
MONTICELLO     CLOUDY    72  72 100 VRB6      29.90R
$$




USA.gov is the U.S. government's official web portal to all federal, state and local government web resources and services.